Wind_Speed
65 65 65 65 65 64 65 65 65 64 62 62 64 65 66 66 67 67 67 67 68 69 71 72 74 75 77 78 79 80 81 81 81 81 80 81 82 83
65 66 66 66 66 66 66 66 66 65 63 62 64 65 67 68 68 68 68 68 69 70 71 73 74 76 77 78 78 77 76 76 75 75 74 75 75 75
66 66 66 66 66 66 66 66 65 66 64 63 64 66 67 68 68 68 69 69 69 70 71 73 74 75 76 76 75 73 72 71 71 70 70 70 70 70
65 65 65 66 66 66 66 65 65 65 65 64 64 66 67 68 68 68 69 69 70 70 71 72 73 74 74 73 71 70 69 68 67 67 67 66 65 65
64 64 64 65 64 65 64 64 65 65 65 64 64 65 66 67 67 68 69 69 69 68 69 70 71 71 70 69 67 66 65 65 64 64 64 62 61 61
63 63 63 63 63 64 64 64 64 64 64 64 64 64 64 65 67 68 68 67 67 67 68 69 69 68 67 65 64 63 62 62 62 61 60 59 57 57
62 61 61 62 62 62 62 62 63 63 63 63 63 63 63 65 66 67 66 66 65 65 67 67 67 66 63 61 60 59 59 59 58 57 56 55 54 53
61 61 62 62 61 62 62 62 62 63 63 63 63 63 63 64 65 65 65 65 64 62 65 64 63 61 58 57 56 56 56 56 55 54 52 50 49 49
61 61 61 61 61 61 61 61 62 62 62 63 62 62 62 63 64 64 64 64 63 62 64 61 59 57 55 54 54 54 54 53 51 50 47 45 44 45
60 60 60 59 59 59 60 61 61 61 61 62 62 61 61 61 62 62 62 62 60 59 60 59 55 54 53 51 52 53 52 49 47 45 41 40 41 42
59 59 58 58 58 59 60 60 60 60 61 61 61 60 59 59 60 61 61 61 59 55 55 57 54 52 50 48 49 50 49 45 43 39 37 37 40 43
58 58 58 58 58 59 59 58 58 58 59 59 58 58 57 57 58 59 59 59 57 52 51 53 52 52 47 45 47 47 44 41 38 35 33 35 40 44
58 57 56 57 57 57 57 56 56 56 56 56 55 55 54 54 55 55 56 56 53 50 50 51 50 50 49 44 42 42 40 37 33 31 30 34 40 45
56 55 54 54 55 54 54 54 53 54 53 53 52 52 52 52 52 52 52 50 49 49 48 49 49 48 46 43 39 38 37 33 29 27 29 35 42 48
54 54 54 53 53 52 51 52 52 51 51 51 50 50 50 50 49 49 48 47 46 46 47 47 47 45 43 42 37 34 32 29 26 24 29 36 43 50
53 53 52 51 50 49 49 49 49 48 49 49 48 48 48 47 47 46 45 44 44 43 44 45 44 42 40 39 36 31 28 24 23 23 29 37 45 53
52 51 49 48 47 46 46 45 45 46 46 46 45 45 45 45 44 43 43 42 42 40 40 41 40 39 38 36 32 27 23 21 20 22 30 39 47 54
49 48 46 45 44 44 43 43 43 44 44 43 43 43 43 42 41 41 41 41 39 38 38 37 36 35 35 32 29 23 19 18 18 22 32 42 48 55
46 44 43 43 42 41 41 41 41 41 40 40 41 41 40 39 39 38 38 38 37 36 35 34 33 32 31 28 24 20 16 17 18 23 35 44 52 56
42 41 40 39 39 38 38 38 38 38 38 38 39 39 38 37 37 36 36 35 34 34 32 31 30 30 27 24 20 17 15 16 19 26 38 49 55 57
38 37 36 36 36 36 35 35 35 35 36 37 36 36 36 35 35 34 34 34 33 31 29 28 28 26 24 20 17 15 15 17 21 30 41 51 56 59
34 34 33 33 32 32 32 32 33 33 34 34 34 34 34 34 34 33 33 32 30 27 26 25 25 23 20 17 14 13 15 17 24 33 43 52 57 61
30 29 28 28 27 27 28 29 30 31 32 32 32 33 33 33 33 32 31 29 26 25 24 22 21 18 15 13 11 11 15 20 27 36 45 52 58 62
Wind_Direction
293 292 293 293 293 292 292 292 292 292 292 293 293 293 293 293 293 293 293 292 291 291 290 290 290 290 290 290 289 288 287 285 283 281 277 273 268 263
292 292 292 293 292 292 292 292 292 292 292 292 292 293 293 294 293 294 293 293 293 293 292 292 292 293 293 292 291 289 287 286 283 280 276 273 269 263
292 292 292 292 292 292 292 292 292 292 292 292 293 293 293 293 294 294 294 295 295 294 294 294 294 295 295 294 292 290 288 286 283 280 277 273 269 263
292 292 292 291 292 292 292 292 292 291 292 292 293 293 293 294 294 294 295 295 296 295 295 296 296 296 296 295 293 291 289 286 284 280 277 273 268 262
292 291 291 291 292 292 292 292 292 291 292 293 293 294 294 294 294 295 295 296 296 296 297 297 297 297 296 295 293 291 289 287 284 280 277 272 266 259
292 292 291 291 291 291 292 292 292 292 292 293 294 294 294 294 295 295 296 296 297 297 297 298 298 298 297 296 294 292 289 287 284 280 276 270 263 256
292 292 292 292 291 291 292 292 292 292 293 294 295 294 295 295 295 296 297 297 298 299 299 299 299 299 298 296 294 292 290 288 285 280 275 268 260 253
292 292 291 291 291 291 291 291 291 292 294 294 295 295 295 295 296 297 298 299 299 299 299 301 300 300 298 297 296 294 292 289 285 280 274 264 256 248
292 292 291 291 290 291 291 291 292 293 293 294 295 296 296 296 297 298 299 300 302 302 301 302 300 300 300 299 298 295 294 291 286 281 272 260 250 239
292 291 291 291 291 290 290 290 291 292 293 294 295 296 296 296 297 299 300 301 303 303 302 302 302 302 302 301 299 297 295 292 287 279 268 254 241 230
291 291 291 291 290 289 290 290 291 292 293 294 295 296 296 297 298 299 301 302 304 305 303 302 303 304 304 302 300 298 297 292 287 276 263 246 232 221
292 292 291 290 289 289 290 290 291 291 292 294 295 295 296 297 298 300 301 303 304 305 303 302 304 305 305 304 301 299 297 292 284 272 257 237 222 214
294 293 291 290 290 290 290 291 291 291 292 293 294 294 295 297 298 300 301 303 304 305 304 303 305 306 306 306 302 299 296 291 280 268 249 227 215 206
294 293 291 291 291 291 290 291 291 292 292 293 294 294 295 297 298 300 301 302 303 305 305 305 307 307 307 307 305 301 296 288 277 262 237 218 208 202
294 293 292 291 291 291 290 290 291 291 292 293 293 294 296 298 299 300 300 302 304 305 306 306 307 308 308 308 306 302 295 285 272 252 225 209 202 197
294 293 293 292 291 291 290 290 290 290 291 292 293 294 296 298 300 300 300 302 304 305 305 306 307 308 308 309 307 301 292 279 262 241 215 202 195 191
293 293 293 292 291 291 290 290 289 290 291 292 293 295 297 299 300 300 301 303 305 305 305 306 307 307 309 310 306 299 286 270 251 227 206 196 190 187
293 293 292 291 290 290 290 289 289 290 291 292 294 296 298 299 300 300 302 304 305 305 306 306 306 307 310 310 306 295 276 258 240 216 198 191 186 183
293 292 291 290 289 289 289 289 290 291 292 293 295 297 298 299 300 301 303 304 305 305 306 305 306 308 310 308 301 288 266 245 228 206 192 186 181 180
293 292 290 289 288 288 288 289 289 291 293 295 296 298 300 301 302 302 304 305 305 306 305 305 305 307 309 305 296 276 254 233 216 198 188 183 181 180
292 291 289 288 287 287 287 288 290 292 295 297 298 300 301 302 303 303 305 305 306 306 304 304 304 306 306 302 291 264 242 222 206 193 186 183 181 178
293 291 290 289 288 287 287 289 292 294 297 298 300 302 303 303 304 305 305 305 305 304 304 303 304 304 302 297 283 255 228 211 197 188 183 181 180 177
297 294 291 290 289 288 289 292 295 297 299 300 302 304 305 305 305 306 305 305 303 303 303 301 301 302 298 291 271 240 216 200 191 185 181 180 178 177
Height
5606 5601 5596 5592 5587 5583 5579 5574 5570 5566 5564 5560 5553 5547 5541 5536 5531 5526 5521 5515 5509 5504 5498 5492 5486 5479 5473 5466 5459 5452 5444 5438 5431 5426 5421 5418 5416 5416
5588 5583 5579 5575 5570 5565 5561 5556 5552 5548 5545 5542 5535 5528 5522 5517 5511 5506 5500 5494 5488 5481 5475 5468 5461 5453 5446 5438 5430 5423 5415 5408 5402 5396 5391 5387 5385 5384
5571 5566 5562 5557 5552 5547 5542 5538 5534 5529 5526 5524 5517 5510 5503 5497 5491 5485 5479 5473 5467 5459 5452 5444 5436 5428 5419 5411 5402 5395 5388 5381 5374 5369 5364 5360 5357 5357
5553 5548 5544 5539 5534 5530 5525 5520 5515 5511 5507 5504 5499 5492 5485 5478 5472 5466 5459 5452 5446 5438 5429 5421 5412 5403 5394 5385 5376 5369 5361 5355 5349 5343 5339 5335 5332 5331
5537 5532 5527 5521 5517 5512 5507 5502 5497 5492 5488 5485 5481 5474 5467 5459 5452 5446 5439 5432 5424 5416 5408 5399 5390 5380 5371 5361 5353 5345 5337 5331 5325 5319 5315 5311 5309 5309
5520 5514 5509 5504 5499 5494 5489 5484 5479 5474 5470 5465 5461 5455 5449 5440 5432 5427 5420 5413 5404 5395 5387 5378 5368 5359 5349 5339 5331 5323 5315 5308 5302 5296 5292 5289 5287 5288
5502 5497 5492 5486 5481 5476 5471 5466 5461 5456 5451 5447 5442 5436 5430 5422 5414 5407 5401 5394 5386 5375 5366 5358 5347 5339 5329 5319 5310 5302 5294 5287 5280 5275 5271 5268 5267 5268
5485 5479 5474 5468 5463 5458 5453 5448 5443 5438 5433 5428 5423 5418 5411 5403 5395 5388 5381 5374 5368 5358 5345 5339 5327 5319 5310 5301 5292 5283 5275 5268 5261 5255 5251 5249 5249 5251
5467 5461 5456 5451 5445 5440 5435 5429 5425 5420 5415 5410 5405 5399 5392 5385 5377 5370 5362 5354 5347 5337 5325 5320 5310 5301 5293 5284 5274 5265 5257 5249 5243 5238 5234 5232 5233 5237
5450 5444 5438 5434 5428 5422 5417 5412 5407 5402 5397 5391 5387 5381 5373 5366 5358 5351 5343 5335 5329 5319 5306 5299 5293 5285 5277 5268 5257 5248 5240 5233 5226 5221 5219 5219 5221 5225
5432 5426 5421 5416 5410 5404 5400 5395 5390 5385 5379 5373 5368 5362 5355 5348 5340 5332 5325 5317 5311 5304 5290 5280 5275 5268 5262 5253 5242 5232 5224 5218 5212 5208 5206 5207 5210 5215
5414 5409 5403 5398 5392 5386 5382 5378 5374 5368 5362 5356 5351 5345 5338 5331 5323 5315 5307 5299 5293 5287 5278 5266 5259 5251 5247 5241 5229 5219 5211 5205 5199 5196 5195 5197 5201 5207
5396 5391 5385 5379 5374 5369 5364 5361 5357 5351 5346 5341 5335 5329 5323 5316 5308 5300 5292 5284 5277 5271 5263 5253 5246 5237 5229 5225 5218 5207 5199 5193 5189 5186 5185 5188 5193 5201
5378 5372 5367 5362 5357 5352 5347 5344 5340 5335 5330 5326 5320 5315 5308 5301 5294 5286 5279 5271 5264 5257 5249 5239 5232 5224 5217 5211 5205 5197 5189 5183 5179 5177 5178 5182 5188 5196
5360 5355 5350 5345 5340 5336 5331 5327 5323 5319 5315 5311 5306 5300 5293 5287 5280 5273 5266 5259 5252 5244 5236 5228 5220 5213 5205 5199 5193 5186 5180 5175 5171 5170 5172 5176 5183 5192
5342 5338 5333 5329 5324 5320 5316 5312 5308 5304 5300 5296 5291 5285 5279 5273 5266 5259 5253 5247 5241 5235 5225 5217 5209 5203 5196 5189 5183 5177 5171 5168 5166 5165 5167 5173 5181 5191
5326 5322 5317 5313 5309 5305 5301 5297 5293 5290 5286 5282 5277 5272 5266 5260 5254 5247 5241 5235 5229 5223 5217 5208 5200 5194 5188 5181 5175 5170 5165 5163 5161 5161 5165 5172 5180 5191
5310 5306 5302 5298 5295 5291 5288 5284 5280 5277 5273 5268 5264 5259 5253 5248 5242 5236 5230 5224 5218 5212 5206 5199 5193 5187 5181 5174 5169 5164 5161 5159 5159 5160 5164 5171 5181 5193
5294 5291 5288 5284 5281 5278 5275 5271 5268 5264 5260 5256 5251 5246 5241 5236 5231 5225 5220 5214 5208 5202 5196 5190 5185 5179 5175 5170 5165 5160 5158 5157 5157 5159 5165 5172 5183 5195
5280 5277 5274 5271 5268 5265 5262 5259 5256 5252 5249 5244 5240 5235 5230 5225 5220 5215 5209 5204 5199 5193 5188 5182 5177 5172 5168 5164 5161 5158 5156 5156 5157 5160 5165 5174 5183 5195
5266 5263 5261 5258 5256 5253 5251 5248 5245 5241 5237 5233 5229 5224 5219 5214 5210 5205 5200 5194 5189 5184 5180 5175 5171 5166 5162 5159 5157 5155 5155 5155 5157 5160 5167 5175 5185 5198
5254 5251 5249 5247 5244 5242 5240 5237 5234 5231 5227 5223 5218 5214 5209 5204 5200 5195 5190 5185 5181 5176 5172 5169 5165 5161 5158 5155 5153 5153 5153 5155 5157 5161 5168 5177 5188 5203
5243 5241 5238 5237 5235 5233 5230 5228 5224 5221 5217 5213 5209 5204 5199 5195 5190 5185 5181 5176 5172 5169 5165 5162 5159 5156 5154 5152 5151 5151 5152 5154 5158 5164 5171 5180 5191 5204